Regional Weather Roundup
Issued by NWS Charleston, SC

Current Version | Previous Version | Graphics & Text | Print | Product List | Glossary On
Versions: 1 2 3 4 5 6 7 8 9 10 11 12 13 14 15 16 17 18 19 20 21 22 23 24 25 26 27 28 29 30 31 32 33 34 35 36 37 38 39 40 41 42 43 44 45 46 47 48 49 50
000 ASUS42 KCHS 032327 RWRCHS REGIONAL WEATHER ROUNDUP NATIONAL WEATHER SERVICE CHARLESTON SC 600 PM EST SAT DEC 03 2016 NOTE: "FAIR" INDICATES FEW OR NO CLOUDS BELOW 12,000 FEET WITH NO SIGNIFICANT WEATHER AND/OR OBSTRUCTIONS TO VISIBILITY. NOT ALL STATIONS ARE QUALITY CONTROLLED. USE DATA WITH CAUTION... ESPECIALLY DEWPOINT OBSERVATIONS. SCZ027-030-031-034>040-042>050-040000- ...SOUTHEAST SOUTH CAROLINA... CITY SKY/WX TMP DP RH WIND PRES REMARKS N CHARLESTON MOCLDY 54 38 54 NE5 30.22S WATERFRONT PRK N/A 55 44 66 VRB2 30.22S MOUNT PLEASANT FAIR 52 45 76 CALM 30.23S JOHNS ISLAND FAIR 52 45 76 CALM 30.24R PINOPOLIS N/A 54 39 58 N6 30.15S MONCKS CORNER FAIR 50 37 62 CALM 30.24S SUMMERVILLE FAIR 52 41 66 CALM 30.26R BEAUFORT MCAS CLOUDY 55 42 61 E5 30.22R BEAUFORT ARPT FAIR 54 43 66 NE3 30.22R HILTON HEAD IS CLEAR 55 43 62 NE5 30.23R WALTERBORO CLOUDY 54 41 62 NE3 30.24R ALLENDALE CLOUDY 54 39 58 N5 30.23R ...SOUTHERN MIDLANDS AND PEE DEE... CITY SKY/WX TMP DP RH WIND PRES REMARKS GEORGETOWN NOT AVBL KINGSTREE FAIR 45 37 76 CALM 30.25R ORANGEBURG PTCLDY 50 37 61 CALM 30.25R BARNWELL NOT AVBL AIKEN CLOUDY 50 36 57 CALM 30.27R MANNING NOT AVBL COLUMBIA CLOUDY 51 40 65 CALM 30.24R SUMTER PTCLDY 49 37 64 CALM 30.22S FLORENCE MOCLDY 50 39 66 CALM 30.24F MYRTLE BEACH MOCLDY 48 34 57 NE12 30.26S N MYRTLE BEACH CLOUDY 48 37 65 CALM 30.24R $$ GAZ063-065-086>088-099>101-113>116-118-119-134>141-150-040000- ...SOUTHEAST GEORGIA... CITY SKY/WX TMP DP RH WIND PRES REMARKS SAVANNAH ARPT CLOUDY 56 39 53 E9 30.22R HUNTER AAF CLOUDY 56 46 68 NE6 30.19R FORT STEWART CLOUDY 56 45 65 CALM 30.19R STATESBORO CLOUDY 57 43 58 NE5 30.23R SYLVANIA CLOUDY N/A N/A N/A NE3 30.24R CLAXTON MOCLDY 55 49 79 CALM 30.22R ...CSRA...CENTRAL AND FAR SOUTHEAST GEORGIA... CITY SKY/WX TMP DP RH WIND PRES REMARKS THOMSON CLOUDY 55 43 65 CALM 30.29R AUGUSTA-BUSH CLOUDY 55 38 52 NE5 30.23S AUGUSTA-DANIEL CLOUDY 56 34 43 NE5 30.23S SWAINSBORO CLOUDY 55 36 47 CALM 30.24R VIDALIA CLOUDY 59 43 55 NE3 30.22R EASTMAN CLOUDY 59 27 29 CALM 30.23S HAZLEHURST CLOUDY 60 40 47 CALM 30.20R ALMA MOCLDY 56 44 64 CALM 30.18S WAYCROSS CLOUDY 60 48 64 E5 30.19R JESUP MOCLDY 57 52 82 E5 30.21R BAXLEY CLOUDY 57 46 67 CALM 30.20R BRUNSWICK CLEAR 57 52 82 N5 30.19S SAINT SIMONS CLEAR 59 49 69 NE8 30.17F $$ SCZ027-028-034-036>038-045-046-048>050-GAZ119-141-040000- ...LAKE AND SUPPLEMENTAL COASTAL OBSERVATIONS... STATION/POSITION TIME TEMP WIND PRES WAVE SWELL AIR SEA DIR/SP/G HT/PER HT/PER/DIR (UTC) (F) (DEG/KT/KT) (MB) (FT/S) (FT/S/D) WINYAH BAY 2245 47 340/ 2 1024.0R LAKE MURRAY 2250 53 CALM / 3 1023.4S ACE BASIN NERRS 2245 53 CALM 1023.0S FORT PULASKI 2300 57 62 70/ 10/ 14 1023.3 SAPELO ISLAND 2300 58 40/ 6 1022.0 $$ ANZ835-935-AMZ111-154-330-350-352-354-370-450-454-472-040000- ...C-MAN AND BUOY OBSERVATIONS... STATION/POSITION TIME TEMP WIND PRES WAVE SWELL AIR SEA DIR/SP/G HT/PER HT/PER/DIR (UTC) (F) (DEG/KT/KT) (MB) (FT/S) (FT/S/D) BUOY 41004 2250 56 75 20/ 12/ 16 1023.1R 4/ 6 3/ 30/ 6 BUOY 41008 2250 62 65 60/ 14/ 19 1021.8F 3/ 5 2/130/ 8 FOLLY BEACH CMAN 2300 54 50/ 8/ 8 1023.8F CAPERS NEARSHORE 2308 54 61 70/ 6/ 10 1023.5F FRIPP NEARSHORE 2308 56 62 60/ 12/ 16 1023.2R STATION/POSITION TIME TEMP WIND PRES WAVE SWELL AIR SEA DIR/SP/G HT/PER HT/PER/DIR (UTC) (F) (DEG/KT/KT) (MB) (FT/S) (FT/S/D) 5E ST. MARYS GA 2300 66 N/A 3/ 4 FRYING PAN BUOY 2310 54 73 340/ 12/ 16 1024.3 BUOY 41025 2250 65 74 10/ 16/ 21 1022.5R 5/ 8 3/ 30/ 8 CAPE LOOKOUT NC 2300 50 350/ 4/ 5 1023.1S BUOY 41002 2250 63 73 350/ 12/ 16 1021.0R 5/ 7 5/ 10/ 7 BUOY 41010 NOT AVBL ST AUGUSTINE FL 2300 66 67 20/ 16/ 17 1021.2R $$

USA.gov is the U.S. government's official web portal to all federal, state and local government web resources and services.